Location: Noordwijk
(52.2400°N, 4.4500°E)
Time: 02:24:02
(UTC+00:00)

TIGRISAT - Pass Details

Date: 08 December 2022
Orbit: 601 x 684 km, 97.7° (Epoch: 29 January)

Event Time Altitude Azimuth Distance (km) Brightness Sun altitude
Rises 03:36:07 0° 132° (SE) 2,931 ? -35.7°
Reaches altitude 10° 03:38:31 10° 121° (ESE) 2,041 ? -35.3°
Enters shadow 03:40:50 23° 95° (E) 1,382 ? -34.9°
